Flag for Canada Weather past 2 weeks in Lloydminster, Alberta, Canada

Now
50 °F

Overcast.


Feels Like: 45 °F
Forecast: 44 / 55 °F
Wind: 14 mph from Northeast

Location: Lloydminister

Current Time: Sep 5, 2015 at 11:03:18 AM

Latest Report: Sep 5, 2015 at 10:00 AM


Visibility: 15 mi

Pressure: 30.19 "Hg (27.92 "Hg at 648m altitude)

Humidity: 76%

Dew point: 43 °F

Location of LloydminsterLocation

Historic Weather in Lloydminster — Graph

°F

Lloydminster temperature yesterday

Maximum temperature yesterday: 55 °F (at 3:00 PM)
Minimum temperature yesterday: 37 °F (at 7:00 AM)
Average temperature yesterday: 47 °F

Past Weeks' High & Low Weather Summary

 TemperatureHumidityPressure
High79 °F (Aug 28, 3:00 PM)100% (Aug 25, 6:59 AM)30.24 "Hg (Aug 25, 6:59 AM)
Low37 °F (Sep 4, 7:00 AM)27% (Sep 2, 4:00 PM)29.48 "Hg (Aug 30, 8:00 PM)
Average58 °F66%29.88 "Hg
* Reported Aug 21 10:00 AM — Sep 5 10:00 AM, Lloydminster, Weather by CustomWeather, © 2015

Note: Actual official high and low records may vary slightly from our data, if they occured in-between our weather recording intervals... More about our weather records

Advertising

Lloydminster weather history for previous 24 hours

 ConditionsComfort  
Time TempWeatherWind HumidityBarometerVisibility
10:00 AM
Sat, Sep 5
50 °FOvercast.14 mph76%30.19 "Hg15 mi
9:00 AM48 °FOvercast.9 mph82%30.21 "Hg15 mi
8:00 AM46 °FOvercast.6 mph87%30.22 "Hg15 mi
6:00 AM45 °FOvercast.7 mph93%30.21 "Hg9 mi
5:00 AM45 °FOvercast.5 mph93%30.22 "Hg9 mi
4:00 AM45 °FMostly cloudy.3 mph93%30.22 "Hg9 mi
3:00 AM45 °FMostly cloudy.5 mph93%30.22 "Hg9 mi
2:00 AM45 °FOvercast.6 mph87%30.22 "Hg9 mi
1:00 AM43 °FMostly cloudy.3 mph93%30.23 "Hg9 mi
12:00 AM45 °FPassing clouds.5 mph87%30.24 "Hg9 mi
11:00 PM
Fri, Sep 4
45 °FMostly cloudy.5 mph87%30.24 "Hg9 mi
10:00 PM45 °FPassing clouds.5 mph87%30.23 "Hg15 mi
9:00 PM46 °FPartly sunny.6 mph82%30.23 "Hg15 mi
8:00 PM48 °FPartly sunny.8 mph76%30.22 "Hg15 mi
7:00 PM52 °FBroken clouds.8 mph67%30.21 "Hg15 mi
6:00 PM54 °FPartly sunny.8 mph63%30.20 "Hg15 mi
5:00 PM55 °FBroken clouds.9 mph59%30.19 "Hg15 mi
4:00 PM55 °FMostly cloudy.8 mph59%30.19 "Hg15 mi
3:00 PM55 °FMostly cloudy.6 mph55%30.19 "Hg15 mi
2:00 PM54 °FPartly sunny.9 mph67%30.19 "Hg15 mi
1:00 PM54 °FPartly sunny.7 mph67%30.20 "Hg15 mi
12:00 PM52 °FBroken clouds.8 mph67%30.19 "Hg15 mi
11:00 AM50 °FPartly sunny.8 mph76%30.19 "Hg15 mi
Weather by CustomWeather, © 2015

See weather overviewHow to use our weather pages